{"data":{"norad_id":55659,"intl_designator":"2023-021AH","name":"STARLINK-5477","alt_names":[],"object_type":"PAYLOAD","status":"ACTIVE","operator":null,"country":"US","launch_date":"2023-02-17","launch_site_code":"AFWTR","launch_vehicle":null,"mission":null,"orbit_class":"UNKNOWN","rcs_meters":null,"size_class":null,"mass_kg":null,"dimensions":null,"purposes":["comms"],"wikipedia_slug":null,"has_3d_model":false,"image_url":null,"decayed_at":null,"tle_current":{"epoch":"2026-09-20T22:00:03.000096Z","epoch_age_seconds":67135,"freshness":"FRESH","line1":"1 55659U 23021AH  26263.91670139  .00012292  00000+0  80385-3 0  9995","line2":"2 55659  70.0013  32.2418 0002722 263.3853 226.1892 15.07939693  5676","mean_motion":15.07939693,"eccentricity":0.0002722,"inclination_deg":70.0013,"raan_deg":32.2418,"arg_perigee_deg":263.3853,"mean_anomaly_deg":226.1892,"bstar":0.00080385,"rev_number":567,"period_min":95.494535138548,"perigee_km":540.61283988451,"apogee_km":544.38043283614,"semimajor_km":6920.6336363603,"source":"CELESTRAK","updated_at":"2026-09-21T09:00:33.307512Z"}}}